| time (UTC) | temp F | wind direction | speed knots | gust knots | rain 1hr in | rain 24hr in | rain mn in | humidity % | barometer mb |
| 20260902144003 | 45 | 150 | 0.0 | 1.7 | 0.00 | 0.00 | 0.00 | 82 | 1012.9 |
| 20260902143504 | 45 | 150 | 0.0 | 1.7 | 0.00 | 0.00 | 0.00 | 79 | 1012.9 |
| 20260902143010 | 44 | 111 | 0.0 | 1.7 | 0.00 | 0.00 | 0.00 | 84 | 1012.8 |
| 20260902142504 | 45 | 119 | 0.0 | 2.6 | 0.00 | 0.00 | 0.00 | 86 | 1012.8 |
| 20260902142008 | 43 | 119 | 0.9 | 2.6 | 0.00 | 0.00 | 0.00 | 83 | 1012.8 |
| 20260902141508 | 44 | 129 | 0.9 | 2.6 | 0.00 | 0.00 | 0.00 | 80 | 1012.8 |
| 20260902141006 | 44 | 360 | 0.9 | 1.7 | 0.00 | 0.00 | 0.00 | 80 | 1012.8 |
| 20260902140507 | 45 | 360 | 0.0 | 1.7 | 0.00 | 0.00 | 0.00 | 83 | 1012.7 |
| 20260902140022 | 46 | 360 | 0.0 | 1.7 | 0.00 | 0.00 | 0.00 | 83 | 1012.8 |
| 20260902135504 | 46 | 360 | 0.0 | 1.7 | 0.00 | 0.00 | 0.00 | 80 | 1012.8 |
| 20260902135006 | 47 | 360 | 0.0 | 1.7 | 0.00 | 0.00 | 0.00 | 84 | 1012.6 |
| 20260902134506 | 46 | 360 | 0.0 | 1.7 | 0.00 | 0.00 | 0.00 | 80 | 1012.8 |
| 20260902134011 | 46 | 200 | 0.0 | 1.7 | 0.00 | 0.00 | 0.00 | 83 | 1012.7 |
| 20260902133506 | 47 | 200 | 0.0 | 1.7 | 0.00 | 0.00 | 0.00 | 79 | 1012.7 |
| 20260902133007 | 46 | 360 | 0.0 | 3.5 | 0.00 | 0.00 | 0.00 | 79 | 1012.7 |
| 20260902132503 | 47 | 360 | 0.0 | 3.5 | 0.00 | 0.00 | 0.00 | 77 | 1012.6 |
| 20260902132003 | 47 | 200 | 0.0 | 3.5 | 0.00 | 0.00 | 0.00 | 76 | 1012.7 |
| 20260902131512 | 47 | 190 | 0.9 | 2.6 | 0.00 | 0.00 | 0.00 | 76 | 1012.7 |
| 20260902131007 | 47 | 157 | 0.9 | 2.6 | 0.00 | 0.00 | 0.00 | 76 | 1012.6 |
| 20260902130507 | 47 | 180 | 0.9 | 2.6 | 0.00 | 0.00 | 0.00 | 77 | 1012.5 |
| 20260902130004 | 47 | 191 | 0.0 | 3.5 | 0.00 | 0.00 | 0.00 | 76 | 1012.5 |
| 20260902125508 | 48 | 192 | 0.0 | 3.5 | 0.00 | 0.00 | 0.00 | 75 | 1012.5 |
| 20260902125012 | 48 | 186 | 0.9 | 4.3 | 0.00 | 0.00 | 0.00 | 74 | 1012.5 |
| 20260902124504 | 48 | 195 | 1.7 | 4.3 | 0.00 | 0.00 | 0.00 | 75 | 1012.4 |
| 20260902124003 | 48 | 182 | 0.0 | 5.2 | 0.00 | 0.00 | 0.00 | 75 | 1012.2 |
| 20260902123508 | 48 | 360 | 0.9 | 5.2 | 0.00 | 0.00 | 0.00 | 74 | 1012.1 |
| 20260902123029 | 48 | 167 | 0.9 | 2.6 | 0.00 | 0.00 | 0.00 | 75 | 1012.1 |
| 20260902122504 | 48 | 151 | 0.0 | 1.7 | 0.00 | 0.00 | 0.00 | 76 | 1012.2 |
| 20260902122003 | 48 | 121 | 0.0 | 1.7 | 0.00 | 0.00 | 0.00 | 76 | 1012.1 |
| 20260902121506 | 48 | 105 | 0.9 | 1.7 | 0.00 | 0.00 | 0.00 | 74 | 1011.9 |
| 20260902121009 | 49 | 182 | 0.0 | 2.6 | 0.00 | 0.00 | 0.00 | 81 | 1011.9 |
| 20260902120507 | 48 | 182 | 0.0 | 2.6 | 0.00 | 0.00 | 0.00 | 80 | 1011.9 |
| 20260902120016 | 48 | 179 | 0.0 | 1.7 | 0.00 | 0.00 | 0.00 | 75 | 1012.0 |
| 20260902115509 | 48 | 179 | 0.0 | 1.7 | 0.00 | 0.00 | 0.00 | 76 | 1012.1 |
| 20260902115006 | 47 | 179 | 0.0 | 3.5 | 0.00 | 0.00 | 0.00 | 77 | 1012.2 |
| 20260902114517 | 47 | 196 | 0.0 | 3.5 | 0.00 | 0.00 | 0.00 | 74 | 1012.2 |
| 20260902114016 | 47 | 179 | 0.0 | 3.5 | 0.00 | 0.00 | 0.00 | 75 | 1012.3 |
| 20260902113513 | 48 | 188 | 0.9 | 3.5 | 0.00 | 0.00 | 0.00 | 74 | 1012.3 |
| 20260902113012 | 48 | 126 | 0.0 | 1.7 | 0.00 | 0.00 | 0.00 | 78 | 1011.9 |
| 20260902112509 | 48 | 169 | 0.0 | 2.6 | 0.00 | 0.00 | 0.00 | 76 | 1011.9 |
| 20260902112020 | 48 | 105 | 0.0 | 2.6 | 0.00 | 0.00 | 0.00 | 74 | 1011.7 |
| 20260902111508 | 48 | 360 | 0.0 | 1.7 | 0.00 | 0.00 | 0.00 | 71 | 1011.6 |
| 20260902111004 | 48 | 360 | 0.0 | 0.9 | 0.00 | 0.00 | 0.00 | 75 | 1011.9 |
| 20260902110507 | 48 | 360 | 0.0 | 1.7 | 0.00 | 0.00 | 0.00 | 77 | 1011.9 |
| 20260902110018 | 47 | 360 | 0.0 | 1.7 | 0.00 | 0.00 | 0.00 | 73 | 1011.9 |
| 20260902105506 | 48 | 150 | 0.0 | 0.9 | 0.00 | 0.00 | 0.00 | 72 | 1011.8 |
| 20260902105006 | 49 | 148 | 0.0 | 0.9 | 0.00 | 0.00 | 0.00 | 77 | 1012.0 |
| 20260902104503 | 49 | 148 | 0.0 | 1.7 | 0.00 | 0.00 | 0.00 | 79 | 1012.2 |
| 20260902104003 | 48 | 148 | 0.0 | 1.7 | 0.00 | 0.00 | 0.00 | 76 | 1012.5 |
| 20260902103502 | 48 | 99 | 0.0 | 1.7 | 0.00 | 0.00 | 0.00 | 70 | 1012.7 |
| 20260902103005 | 49 | 99 | 0.0 | 1.7 | 0.00 | 0.00 | 0.00 | 72 | 1012.7 |
| 20260902102504 | 49 | 111 | 0.0 | 0.9 | 0.00 | 0.00 | 0.00 | 73 | 1012.7 |
| 20260902102004 | 49 | 111 | 0.0 | 0.9 | 0.00 | 0.00 | 0.00 | 71 | 1012.9 |
| 20260902101504 | 49 | 185 | 0.0 | 0.9 | 0.00 | 0.00 | 0.00 | 75 | 1012.9 |
| 20260902101003 | 48 | 185 | 0.0 | 0.9 | 0.00 | 0.00 | 0.00 | 72 | 1012.8 |
| 20260902100504 | 49 | 185 | 0.0 | 0.9 | 0.00 | 0.00 | 0.00 | 74 | 1012.6 |
| 20260902100003 | 49 | 185 | 0.0 | 0.9 | 0.00 | 0.00 | 0.00 | 75 | 1012.5 |
| 20260902095503 | 49 | 360 | 0.0 | 0.9 | 0.00 | 0.00 | 0.00 | 71 | 1012.4 |
| 20260902095003 | 49 | 360 | 0.0 | 0.9 | 0.00 | 0.00 | 0.00 | 73 | 1012.2 |
| 20260902094505 | 49 | 360 | 0.0 | 0.9 | 0.00 | 0.00 | 0.00 | 74 | 1012.3 |
| 20260902094004 | 49 | 360 | 0.0 | 1.7 | 0.00 | 0.00 | 0.00 | 76 | 1012.2 |
| 20260902093506 | 48 | 360 | 0.0 | 1.7 | 0.00 | 0.00 | 0.00 | 74 | 1012.2 |
| 20260902093004 | 48 | 360 | 0.0 | 0.9 | 0.00 | 0.00 | 0.00 | 68 | 1012.1 |
| 20260902092502 | 49 | 360 | 0.0 | 1.7 | 0.00 | 0.00 | 0.00 | 75 | 1012.0 |
| 20260902092004 | 49 | 360 | 0.0 | 2.6 | 0.00 | 0.00 | 0.00 | 70 | 1012.0 |
| 20260902090503 | 49 | 360 | 0.0 | 1.7 | 0.00 | 0.00 | 0.00 | 77 | 1012.3 |
| 20260902084004 | 50 | 360 | 0.0 | 1.7 | 0.00 | 0.00 | 0.00 | 73 | 1012.1 |
| 20260902083503 | 49 | 360 | 0.0 | 2.6 | 0.00 | 0.00 | 0.00 | 78 | 1012.5 |
| 20260902083004 | 48 | 360 | 0.9 | 2.6 | 0.00 | 0.00 | 0.00 | 77 | 1012.4 |
| 20260902082504 | 48 | 360 | 0.9 | 2.6 | 0.00 | 0.00 | 0.00 | 72 | 1012.4 |
| 20260902082004 | 48 | 360 | 0.0 | 1.7 | 0.00 | 0.00 | 0.00 | 73 | 1012.3 |
| 20260902081503 | 48 | 360 | 0.0 | 2.6 | 0.00 | 0.00 | 0.00 | 71 | 1012.4 |
| 20260902081004 | 48 | 360 | 0.0 | 2.6 | 0.00 | 0.00 | 0.00 | 70 | 1012.4 |
| 20260902075504 | 49 | 360 | 0.0 | 2.6 | 0.00 | 0.00 | 0.00 | 71 | 1012.5 |
| 20260902075008 | 49 | 189 | 0.0 | 3.5 | 0.00 | 0.00 | 0.00 | 70 | 1012.5 |
| 20260902074504 | 48 | 360 | 0.0 | 3.5 | 0.00 | 0.00 | 0.00 | 71 | 1012.7 |
| 20260902074003 | 48 | 360 | 0.0 | 2.6 | 0.00 | 0.00 | 0.00 | 71 | 1012.7 |
| 20260902073503 | 49 | 360 | 0.0 | 2.6 | 0.00 | 0.00 | 0.00 | 67 | 1012.6 |
| 20260902073004 | 50 | 154 | 0.0 | 1.7 | 0.00 | 0.00 | 0.00 | 71 | 1012.4 |
| 20260902072504 | 50 | 153 | 0.0 | 1.7 | 0.00 | 0.00 | 0.00 | 79 | 1012.5 |
| 20260902072004 | 49 | 175 | 0.0 | 5.2 | 0.00 | 0.00 | 0.00 | 69 | 1012.6 |
| 20260902071508 | 48 | 153 | 0.9 | 5.2 | 0.00 | 0.00 | 0.00 | 69 | 1012.7 |
| 20260902071003 | 48 | 360 | 0.9 | 2.6 | 0.00 | 0.00 | 0.00 | 68 | 1012.5 |
| 20260902070504 | 48 | 360 | 0.0 | 2.6 | 0.00 | 0.00 | 0.00 | 69 | 1012.6 |
| 20260902070009 | 48 | 360 | 0.9 | 2.6 | 0.00 | 0.00 | 0.00 | 67 | 1012.6 |
| 20260902065505 | 50 | 360 | 0.0 | 2.6 | 0.00 | 0.00 | 0.00 | 72 | 1012.5 |
| 20260902065005 | 49 | 360 | 0.0 | 1.7 | 0.00 | 0.00 | 0.00 | 65 | 1012.4 |
| 20260902064508 | 49 | 360 | 0.9 | 2.6 | 0.00 | 0.00 | 0.00 | 68 | 1012.3 |
| 20260902064003 | 50 | 360 | 0.0 | 3.5 | 0.00 | 0.00 | 0.00 | 75 | 1012.2 |
| 20260902063504 | 49 | 360 | 0.9 | 3.5 | 0.00 | 0.00 | 0.00 | 73 | 1012.1 |
| 20260902063008 | 50 | 360 | 0.0 | 1.7 | 0.00 | 0.00 | 0.00 | 78 | 1012.2 |
| 20260902062504 | 48 | 360 | 0.0 | 2.6 | 0.00 | 0.00 | 0.00 | 70 | 1012.2 |
| 20260902062004 | 48 | 360 | 0.9 | 2.6 | 0.00 | 0.00 | 0.00 | 69 | 1012.2 |
| 20260902061505 | 47 | 360 | 0.9 | 3.5 | 0.00 | 0.00 | 0.00 | 70 | 1012.2 |
| 20260902061004 | 47 | 360 | 1.7 | 3.5 | 0.00 | 0.00 | 0.00 | 70 | 1012.2 |
| 20260902060507 | 48 | 360 | 1.7 | 2.6 | 0.00 | 0.00 | 0.00 | 71 | 1012.2 |
| 20260902060009 | 49 | 360 | 0.9 | 2.6 | 0.00 | 0.00 | 0.00 | 67 | 1012.2 |
| 20260902055508 | 49 | 360 | 0.0 | 2.6 | 0.00 | 0.00 | 0.00 | 69 | 1012.1 |
| 20260902055004 | 48 | 360 | 0.9 | 2.6 | 0.00 | 0.00 | 0.00 | 67 | 1012.2 |
| 20260902054506 | 48 | 360 | 0.9 | 3.5 | 0.00 | 0.00 | 0.00 | 69 | 1012.2 |
| 20260902054003 | 48 | 159 | 0.9 | 3.5 | 0.00 | 0.00 | 0.00 | 69 | 1012.4 |
| 20260902053502 | 49 | 192 | 0.9 | 2.6 | 0.00 | 0.00 | 0.00 | 65 | 1012.4 |
| 20260902053010 | 50 | 155 | 0.0 | 2.6 | 0.00 | 0.00 | 0.00 | 68 | 1012.5 |
| 20260902052507 | 50 | 142 | 0.9 | 2.6 | 0.00 | 0.00 | 0.00 | 64 | 1012.5 |
| 20260902052007 | 51 | 154 | 0.0 | 1.7 | 0.00 | 0.00 | 0.00 | 68 | 1012.5 |
| 20260902051509 | 50 | 360 | 0.0 | 3.5 | 0.00 | 0.00 | 0.00 | 68 | 1012.5 |
| 20260902051004 | 50 | 360 | 0.0 | 3.5 | 0.00 | 0.00 | 0.00 | 63 | 1012.5 |
| 20260902050041 | 51 | 360 | 0.9 | 3.5 | 0.00 | 0.00 | 0.00 | 63 | 1012.4 |
| 20260902045510 | 51 | 360 | 0.9 | 2.6 | 0.00 | 0.00 | 0.00 | 62 | 1012.3 |
| 20260902045004 | 52 | 360 | 0.0 | 2.6 | 0.00 | 0.00 | 0.00 | 61 | 1012.2 |
| 20260902044510 | 51 | 360 | 0.9 | 3.5 | 0.00 | 0.00 | 0.00 | 64 | 1012.1 |
| 20260902044003 | 51 | 360 | 1.7 | 3.5 | 0.00 | 0.00 | 0.00 | 64 | 1012.0 |
| 20260902043502 | 51 | 161 | 0.9 | 2.6 | 0.00 | 0.00 | 0.00 | 60 | 1012.0 |
| 20260902043013 | 53 | 131 | 0.0 | 1.7 | 0.00 | 0.00 | 0.00 | 65 | 1012.0 |
| 20260902042502 | 52 | 360 | 0.0 | 2.6 | 0.00 | 0.00 | 0.00 | 61 | 1011.9 |
| 20260902042004 | 53 | 360 | 0.9 | 2.6 | 0.00 | 0.00 | 0.00 | 59 | 1011.9 |
| 20260902041512 | 53 | 360 | 0.9 | 2.6 | 0.00 | 0.00 | 0.00 | 60 | 1011.9 |
| 20260902041006 | 53 | 360 | 0.0 | 2.6 | 0.00 | 0.00 | 0.00 | 59 | 1011.9 |
| 20260902040507 | 52 | 360 | 0.0 | 3.5 | 0.00 | 0.00 | 0.00 | 62 | 1011.9 |
| 20260902040007 | 53 | 360 | 0.9 | 3.5 | 0.00 | 0.00 | 0.00 | 61 | 1011.8 |
| 20260902035505 | 53 | 360 | 0.9 | 3.5 | 0.00 | 0.00 | 0.00 | 60 | 1011.9 |
| 20260902035010 | 54 | 360 | 0.9 | 3.5 | 0.00 | 0.00 | 0.00 | 61 | 1011.9 |
| 20260902034505 | 54 | 360 | 0.9 | 3.5 | 0.00 | 0.00 | 0.00 | 60 | 1011.8 |
| 20260902034003 | 55 | 360 | 0.0 | 3.5 | 0.00 | 0.00 | 0.00 | 59 | 1011.7 |
| 20260902033507 | 54 | 360 | 1.7 | 3.5 | 0.00 | 0.00 | 0.00 | 61 | 1011.6 |
| 20260902033004 | 54 | 360 | 0.0 | 2.6 | 0.00 | 0.00 | 0.00 | 60 | 1011.5 |
| 20260902032505 | 55 | 360 | 0.0 | 2.6 | 0.00 | 0.00 | 0.00 | 58 | 1011.4 |
| 20260902032006 | 55 | 142 | 0.9 | 2.6 | 0.00 | 0.00 | 0.00 | 58 | 1011.4 |
| 20260902031508 | 56 | 149 | 0.9 | 2.6 | 0.00 | 0.00 | 0.00 | 59 | 1011.3 |
| 20260902031007 | 57 | 166 | 0.0 | 3.5 | 0.00 | 0.00 | 0.00 | 59 | 1011.3 |
| 20260902030507 | 57 | 140 | 0.9 | 3.5 | 0.00 | 0.00 | 0.00 | 56 | 1011.2 |
| 20260902030012 | 58 | 167 | 0.9 | 3.5 | 0.00 | 0.00 | 0.00 | 56 | 1011.0 |
| 20260902025509 | 58 | 134 | 1.7 | 3.5 | 0.00 | 0.00 | 0.00 | 55 | 1010.9 |
| 20260902025003 | 59 | 117 | 0.0 | 1.7 | 0.00 | 0.00 | 0.00 | 58 | 1011.0 |
| 20260902024511 | 60 | 117 | 0.0 | 2.6 | 0.00 | 0.00 | 0.00 | 56 | 1011.0 |
| 20260902024010 | 60 | 264 | 0.9 | 2.6 | 0.00 | 0.00 | 0.00 | 50 | 1011.0 |
| 20260902023512 | 60 | 28 | 0.0 | 0.9 | 0.00 | 0.00 | 0.00 | 50 | 1011.0 |
| 20260902023007 | 62 | 28 | 0.0 | 1.7 | 0.00 | 0.00 | 0.00 | 54 | 1010.9 |
| 20260902022508 | 63 | 28 | 0.0 | 1.7 | 0.00 | 0.00 | 0.00 | 49 | 1010.9 |
| 20260902022012 | 63 | 28 | 0.0 | 2.6 | 0.00 | 0.00 | 0.00 | 50 | 1010.9 |
| 20260902021507 | 64 | 162 | 0.0 | 2.6 | 0.00 | 0.00 | 0.00 | 51 | 1011.1 |
| 20260902021007 | 64 | 116 | 0.9 | 2.6 | 0.00 | 0.00 | 0.00 | 48 | 1011.0 |
| 20260902020504 | 64 | 189 | 0.0 | 1.7 | 0.00 | 0.00 | 0.00 | 45 | 1010.9 |
| 20260902020009 | 65 | 169 | 0.0 | 1.7 | 0.00 | 0.00 | 0.00 | 52 | 1011.0 |
| 20260902015504 | 65 | 169 | 0.0 | 7.0 | 0.00 | 0.00 | 0.00 | 51 | 1011.0 |
| 20260902015007 | 65 | 230 | 0.0 | 7.0 | 0.00 | 0.00 | 0.00 | 47 | 1010.9 |
| 20260902014513 | 65 | 352 | 0.9 | 7.0 | 0.00 | 0.00 | 0.00 | 54 | 1010.9 |
| 20260902014003 | 66 | 336 | 0.9 | 3.5 | 0.00 | 0.00 | 0.00 | 51 | 1010.9 |
| 20260902013508 | 66 | 249 | 1.7 | 2.6 | 0.00 | 0.00 | 0.00 | 49 | 1010.9 |
| 20260902013021 | 66 | 263 | 0.0 | 3.5 | 0.00 | 0.00 | 0.00 | 48 | 1010.9 |
| 20260902012510 | 66 | 263 | 0.0 | 3.5 | 0.00 | 0.00 | 0.00 | 51 | 1010.9 |
| 20260902012004 | 67 | 269 | 0.9 | 5.2 | 0.00 | 0.00 | 0.00 | 47 | 1010.9 |
| 20260902011521 | 66 | 230 | 1.7 | 5.2 | 0.00 | 0.00 | 0.00 | 45 | 1010.8 |
| 20260902011015 | 67 | 351 | 0.9 | 7.8 | 0.00 | 0.00 | 0.00 | 44 | 1010.7 |
| 20260902010513 | 67 | 71 | 2.6 | 7.8 | 0.00 | 0.00 | 0.00 | 46 | 1010.5 |
| 20260902010010 | 67 | 107 | 0.9 | 6.1 | 0.00 | 0.00 | 0.00 | 43 | 1010.5 |
| 20260902005504 | 68 | 214 | 1.7 | 6.1 | 0.00 | 0.00 | 0.00 | 44 | 1010.5 |
| 20260902005005 | 68 | 194 | 1.7 | 7.8 | 0.00 | 0.00 | 0.00 | 51 | 1010.3 |
| 20260902004512 | 68 | 229 | 0.0 | 7.8 | 0.00 | 0.00 | 0.00 | 49 | 1010.3 |
| 20260902004005 | 68 | 360 | 0.9 | 5.2 | 0.00 | 0.00 | 0.00 | 40 | 1010.1 |
| 20260902003510 | 69 | 344 | 1.7 | 6.1 | 0.00 | 0.00 | 0.00 | 40 | 1010.1 |
| 20260902003028 | 70 | 317 | 1.7 | 7.0 | 0.00 | 0.00 | 0.00 | 40 | 1010.1 |
| 20260902002505 | 70 | 263 | 2.6 | 7.0 | 0.00 | 0.00 | 0.00 | 44 | 1009.9 |
| 20260902002013 | 71 | 276 | 1.7 | 7.0 | 0.00 | 0.00 | 0.00 | 39 | 1010.0 |
| 20260902001525 | 71 | 350 | 0.9 | 7.0 | 0.00 | 0.00 | 0.00 | 36 | 1009.9 |
| 20260902001006 | 72 | 219 | 2.6 | 7.8 | 0.00 | 0.00 | 0.00 | 40 | 1009.9 |
| 20260902000514 | 73 | 308 | 0.9 | 7.8 | 0.00 | 0.00 | 0.00 | 35 | 1009.8 |
| 20260902000025 | 73 | 240 | 2.6 | 9.6 | 0.00 | 0.00 | 0.00 | 37 | 1009.9 |
| 20260901235515 | 73 | 343 | 4.3 | 9.6 | 0.00 | 0.00 | 0.00 | 33 | 1009.7 |
| 20260901235005 | 75 | 298 | 0.9 | 6.1 | 0.00 | 0.00 | 0.00 | 32 | 1009.6 |
| 20260901234524 | 75 | 288 | 0.9 | 8.7 | 0.00 | 0.00 | 0.00 | 34 | 1009.7 |
| 20260901234004 | 75 | 287 | 0.9 | 8.7 | 0.00 | 0.00 | 0.00 | 37 | 1009.7 |
| 20260901233507 | 75 | 258 | 1.7 | 7.0 | 0.00 | 0.00 | 0.00 | 28 | 1009.6 |
| 20260901233015 | 76 | 153 | 2.6 | 9.6 | 0.00 | 0.00 | 0.00 | 23 | 1009.6 |
| 20260901232516 | 76 | 258 | 0.9 | 9.6 | 0.00 | 0.00 | 0.00 | 22 | 1009.7 |
| 20260901232011 | 77 | 194 | 2.6 | 9.6 | 0.00 | 0.00 | 0.00 | 19 | 1009.7 |
| 20260901231522 | 77 | 232 | 0.9 | 7.0 | 0.00 | 0.00 | 0.00 | 20 | 1009.7 |
| 20260901231009 | 77 | 232 | 2.6 | 10.4 | 0.00 | 0.00 | 0.00 | 19 | 1009.7 |
| 20260901230516 | 78 | 196 | 3.5 | 10.4 | 0.00 | 0.00 | 0.00 | 18 | 1009.8 |
| 20260901230025 | 77 | 101 | 1.7 | 7.0 | 0.00 | 0.00 | 0.00 | 25 | 1009.7 |
| 20260901225511 | 78 | 301 | 0.9 | 7.0 | 0.00 | 0.00 | 0.00 | 22 | 1009.8 |
| 20260901225013 | 78 | 141 | 3.5 | 7.8 | 0.00 | 0.00 | 0.00 | 23 | 1009.9 |
| 20260901224535 | 78 | 121 | 0.0 | 7.8 | 0.00 | 0.00 | 0.00 | 23 | 1009.9 |
| 20260901224006 | 78 | 267 | 1.7 | 7.8 | 0.00 | 0.00 | 0.00 | 22 | 1009.9 |
| 20260901223502 | 78 | 34 | 2.6 | 7.8 | 0.00 | 0.00 | 0.00 | 23 | 1010.0 |
| 20260901223004 | 78 | 119 | 2.6 | 8.7 | 0.00 | 0.00 | 0.00 | 23 | 1010.0 |
| 20260901222504 | 77 | 13 | 1.7 | 8.7 | 0.00 | 0.00 | 0.00 | 25 | 1010.0 |
| 20260901222006 | 77 | 5 | 2.6 | 8.7 | 0.00 | 0.00 | 0.00 | 26 | 1010.1 |
| 20260901221504 | 77 | 205 | 0.9 | 4.3 | 0.00 | 0.00 | 0.00 | 27 | 1010.0 |
| 20260901221003 | 74 | 98 | 1.7 | 4.3 | 0.00 | 0.00 | 0.00 | 29 | 1010.1 |
| 20260901220505 | 74 | 163 | 0.9 | 3.5 | 0.00 | 0.00 | 0.00 | 30 | 1010.0 |
| 20260901220003 | 74 | 285 | 1.7 | 3.5 | 0.00 | 0.00 | 0.00 | 32 | 1010.2 |
| 20260901215504 | 75 | 313 | 0.9 | 5.2 | 0.00 | 0.00 | 0.00 | 36 | 1010.2 |
| 20260901215005 | 76 | 24 | 1.7 | 5.2 | 0.00 | 0.00 | 0.00 | 26 | 1010.3 |
| 20260901214506 | 76 | 63 | 0.9 | 11.3 | 0.00 | 0.00 | 0.00 | 26 | 1010.4 |
| 20260901214003 | 76 | 182 | 3.5 | 11.3 | 0.00 | 0.00 | 0.00 | 28 | 1010.5 |
| 20260901213504 | 75 | 26 | 0.9 | 7.8 | 0.00 | 0.00 | 0.00 | 27 | 1010.3 |
| 20260901213010 | 76 | 213 | 2.6 | 10.4 | 0.00 | 0.00 | 0.00 | 27 | 1010.6 |
| 20260901212507 | 75 | 135 | 2.6 | 10.4 | 0.00 | 0.00 | 0.00 | 27 | 1010.8 |
| 20260901212003 | 76 | 148 | 5.2 | 10.4 | 0.00 | 0.00 | 0.00 | 27 | 1010.8 |
| 20260901211508 | 77 | 122 | 3.5 | 13.9 | 0.00 | 0.00 | 0.00 | 27 | 1010.7 |
| 20260901211010 | 76 | 200 | 1.7 | 13.9 | 0.00 | 0.00 | 0.00 | 30 | 1010.8 |
| 20260901210504 | 75 | 104 | 0.9 | 9.6 | 0.00 | 0.00 | 0.00 | 32 | 1011.0 |
| 20260901210007 | 75 | 96 | 2.6 | 9.6 | 0.00 | 0.00 | 0.00 | 29 | 1011.1 |
| 20260901205507 | 75 | 162 | 3.5 | 7.8 | 0.00 | 0.00 | 0.00 | 29 | 1011.2 |
| 20260901205005 | 74 | 55 | 1.7 | 12.2 | 0.00 | 0.00 | 0.00 | 31 | 1011.1 |
| 20260901204504 | 74 | 188 | 2.6 | 12.2 | 0.00 | 0.00 | 0.00 | 30 | 1011.1 |
| 20260901204003 | 74 | 190 | 2.6 | 10.4 | 0.00 | 0.00 | 0.00 | 32 | 1011.2 |
| 20260901203503 | 74 | 126 | 3.5 | 10.4 | 0.00 | 0.00 | 0.00 | 31 | 1011.2 |
| 20260901203004 | 73 | 76 | 1.7 | 10.4 | 0.00 | 0.00 | 0.00 | 30 | 1011.1 |
| 20260901202504 | 73 | 195 | 2.6 | 10.4 | 0.00 | 0.00 | 0.00 | 32 | 1011.2 |
| 20260901202007 | 73 | 236 | 1.7 | 9.6 | 0.00 | 0.00 | 0.00 | 29 | 1011.2 |
| 20260901201511 | 74 | 84 | 1.7 | 9.6 | 0.00 | 0.00 | 0.00 | 31 | 1011.3 |
| 20260901201007 | 74 | 232 | 1.7 | 8.7 | 0.00 | 0.00 | 0.00 | 31 | 1011.5 |
| 20260901200505 | 73 | 78 | 0.9 | 6.1 | 0.00 | 0.00 | 0.00 | 35 | 1011.6 |
| 20260901200018 | 73 | 187 | 2.6 | 6.1 | 0.00 | 0.00 | 0.00 | 29 | 1011.6 |
| 20260901195005 | 73 | 49 | 1.7 | 11.3 | 0.00 | 0.00 | 0.00 | 32 | 1011.4 |
| 20260901194514 | 74 | 225 | 1.7 | 7.0 | 0.00 | 0.00 | 0.00 | 30 | 1011.4 |
| 20260901192503 | 73 | 97 | 2.6 | 7.0 | 0.00 | 0.00 | 0.00 | 35 | 1011.7 |
| 20260901192016 | 73 | 114 | 0.9 | 4.3 | 0.00 | 0.00 | 0.00 | 36 | 1011.7 |
| 20260901184538 | 66 | 223 | 0.9 | 4.3 | 0.00 | 0.00 | 0.00 | 36 | 1011.9 |
| 20260901184007 | 65 | 315 | 0.9 | 2.6 | 0.00 | 0.00 | 0.00 | 38 | 1011.9 |
| 20260901183511 | 64 | 327 | 0.0 | 2.6 | 0.00 | 0.00 | 0.00 | 40 | 1012.1 |
| 20260901182516 | 63 | 148 | 0.9 | 3.5 | 0.00 | 0.00 | 0.00 | 42 | 1012.6 |
| 20260901182006 | 62 | 320 | 0.9 | 3.5 | 0.00 | 0.00 | 0.00 | 42 | 1012.7 |
| 20260901181007 | 61 | 260 | 0.0 | 3.5 | 0.00 | 0.00 | 0.00 | 56 | 1012.8 |
| 20260901180507 | 60 | 360 | 0.0 | 3.5 | 0.00 | 0.00 | 0.00 | 47 | 1013.0 |
| 20260901180012 | 59 | 348 | 0.0 | 3.5 | 0.00 | 0.00 | 0.00 | 47 | 1013.2 |
| 20260901175512 | 59 | 360 | 0.0 | 1.7 | 0.00 | 0.00 | 0.00 | 44 | 1013.3 |
| 20260901175007 | 59 | 360 | 0.0 | 0.9 | 0.00 | 0.00 | 0.00 | 52 | 1013.3 |
| 20260901174011 | 59 | 360 | 0.0 | 0.9 | 0.00 | 0.00 | 0.00 | 52 | 1013.1 |
| 20260901173509 | 59 | 360 | 0.0 | 0.9 | 0.00 | 0.00 | 0.00 | 47 | 1013.0 |
| 20260901173026 | 58 | 360 | 0.0 | 0.9 | 0.00 | 0.00 | 0.00 | 56 | 1013.0 |
| 20260901172510 | 58 | 360 | 0.0 | 1.7 | 0.00 | 0.00 | 0.00 | 54 | 1013.0 |
| 20260901172016 | 58 | 68 | 0.0 | 1.7 | 0.00 | 0.00 | 0.00 | 54 | 1012.8 |
| 20260901171536 | 57 | 61 | 0.9 | 1.7 | 0.00 | 0.00 | 0.00 | 45 | 1012.8 |
| 20260901171007 | 58 | 345 | 0.0 | 1.7 | 0.00 | 0.00 | 0.00 | 56 | 1012.9 |
| 20260901170512 | 57 | 345 | 0.0 | 1.7 | 0.00 | 0.00 | 0.00 | 58 | 1012.9 |
| 20260901170010 | 57 | 20 | 0.0 | 1.7 | 0.00 | 0.00 | 0.00 | 47 | 1012.9 |
| 20260901165508 | 57 | 20 | 0.0 | 2.6 | 0.00 | 0.00 | 0.00 | 57 | 1012.8 |
| 20260901165008 | 56 | 22 | 0.0 | 3.5 | 0.00 | 0.00 | 0.00 | 45 | 1012.8 |
| 20260901164514 | 56 | 28 | 1.7 | 3.5 | 0.00 | 0.00 | 0.00 | 46 | 1012.9 |
| 20260901164008 | 56 | 63 | 0.0 | 2.6 | 0.00 | 0.00 | 0.00 | 50 | 1013.0 |
| 20260901163502 | 56 | 360 | 0.0 | 2.6 | 0.00 | 0.00 | 0.00 | 46 | 1012.9 |
| 20260901163005 | 56 | 32 | 0.9 | 2.6 | 0.00 | 0.00 | 0.00 | 51 | 1012.9 |
| 20260901162004 | 56 | 260 | 0.0 | 1.7 | 0.00 | 0.00 | 0.00 | 52 | 1012.8 |
| 20260901161507 | 56 | 271 | 0.0 | 1.7 | 0.00 | 0.00 | 0.00 | 49 | 1012.7 |
| 20260901160505 | 55 | 191 | 0.0 | 0.9 | 0.00 | 0.00 | 0.00 | 66 | 1012.6 |
| 20260901160011 | 55 | 191 | 0.0 | 2.6 | 0.00 | 0.00 | 0.00 | 57 | 1012.4 |
| 20260901155503 | 55 | 360 | 0.0 | 2.6 | 0.00 | 0.00 | 0.00 | 50 | 1012.4 |
| 20260901155003 | 55 | 360 | 0.0 | 1.7 | 0.00 | 0.00 | 0.00 | 56 | 1012.3 |
| 20260901154508 | 54 | 360 | 0.0 | 1.7 | 0.00 | 0.00 | 0.00 | 51 | 1012.3 |
| 20260901154008 | 54 | 360 | 0.9 | 1.7 | 0.00 | 0.00 | 0.00 | 67 | 1012.4 |
| 20260901153503 | 54 | 360 | 0.0 | 1.7 | 0.00 | 0.00 | 0.00 | 64 | 1012.4 |
| 20260901153007 | 52 | 360 | 0.0 | 7.0 | 0.00 | 0.00 | 0.00 | 53 | 1012.4 |
| 20260901152502 | 51 | 360 | 0.9 | 7.0 | 0.00 | 0.00 | 0.00 | 57 | 1012.6 |
| 20260901152006 | 50 | 360 | 0.9 | 7.0 | 0.00 | 0.00 | 0.00 | 58 | 1012.1 |
| 20260901151506 | 50 | 167 | 0.0 | 7.0 | 0.00 | 0.00 | 0.00 | 56 | 1012.4 |
| 20260901151003 | 50 | 360 | 0.9 | 2.6 | 0.00 | 0.00 | 0.00 | 55 | 1012.5 |
| 20260901150506 | 50 | 180 | 0.0 | 0.9 | 0.00 | 0.00 | 0.00 | 67 | 1012.5 |
| 20260901150010 | 50 | 179 | 0.0 | 0.9 | 0.00 | 0.00 | 0.00 | 56 | 1012.7 |
| 20260901145504 | 51 | 180 | 0.0 | 0.9 | 0.00 | 0.00 | 0.00 | 67 | 1012.6 |
| 20260901145004 | 50 | 180 | 0.0 | 0.9 | 0.00 | 0.00 | 0.00 | 69 | 1012.6 |
| 20260901144510 | 50 | 360 | 0.0 | 0.9 | 0.00 | 0.00 | 0.00 | 63 | 1012.7 |